West Palm Beach, FL

7:37 PM EDT on August 18, 2019 (GMT -0400)
Palm Beach International

Weather History for KPBI - May, 2019

Change the Weather History Date:

Sunday, May 26, 2019

  Actual Average Record
Temperature  
Mean Temperature 83 °F 80 °F  
Max Temperature 87 °F 87 °F 93 °F (2000)
Min Temperature 78 °F 73 °F 57 °F (1979)
Degree Days  
Heating Degree Days 0 0  
Month to date heating degree days 0 0  
Since 1 July heating degree days 144 233  
Cooling Degree Days 18 15  
Month to date cooling degree days 387 337  
Year to date cooling degree days 1312 1032  
Growing Degree Days 32 (Base 50)    
Moisture  
Dew Point 70 °F    
Average Humidity 66    
Maximum Humidity 74    
Minimum Humidity 57    
Precipitation  
Precipitation 0.00 in 0.21 in 3.65 in (1968)
Month to date precipitation 5.29 3.41  
Year to date precipitation 21.01 17.61  
Snow  
Snow 0.00 in - - ()
Month to date snowfall 0.0  
Since 1 July snowfall 0.0  
Snow Depth 0.00 in    
Sea Level Pressure  
Sea Level Pressure 30.11 in    
Wind  
Wind Speed 11 mph (East)    
Max Wind Speed 16 mph    
Max Gust Speed 22 mph    
Visibility 10 miles    
Events      
T = Trace of Precipitation, MM = Missing Value Source: NWS Daily Summary

Daily Weather History Graph

Daily Weather History Graph

Search for Another Location

Airport or City:

Astronomy

May. 26, 2019 Rise Set
Actual Time 6:28 AM EDT 8:06 PM EDT
Civil Twilight 6:02 AM EDT 8:32 PM EDT
Nautical Twilight 5:32 AM EDT 9:03 PM EDT
Astronomical Twilight 4:59 AM EDT 9:35 PM EDT
Moon 1:49 AM EDT (5/26) 1:11 PM EDT (5/26)
Length of Visible Light 14h 29m
Length of Day
13h 37m
Waning Gibbous, 50% of the Moon is Illuminated
May 26
Waning Gibbous
May 26
Last Quarter
Jun 3
New
Jun 10
First Quarter
Jun 17
Full

Hourly Weather History & Observations

Time (EDT) Temp. Heat Index Dew Point Humidity Pressure Visibility Wind Dir Wind Speed Gust Speed Precip Events Conditions
12:53 AM 79.0 °F - 66.9 °F 66% 30.12 in 10.0 mi East 13.8 mph - N/A   Scattered Clouds
1:53 AM 79.0 °F - 68.0 °F 69% 30.11 in 10.0 mi East 13.8 mph - N/A   Scattered Clouds
2:53 AM 78.1 °F - 66.9 °F 68% 30.09 in 10.0 mi East 15.0 mph - N/A   Scattered Clouds
3:53 AM 78.1 °F - 68.0 °F 71% 30.08 in 10.0 mi East 13.8 mph - N/A   Scattered Clouds
4:53 AM 78.1 °F - 69.1 °F 74% 30.08 in 10.0 mi East 11.5 mph - N/A   Mostly Cloudy
5:53 AM 78.1 °F - 69.1 °F 74% 30.09 in 10.0 mi ESE 10.4 mph - N/A   Mostly Cloudy
6:53 AM 79.0 °F - 70.0 °F 74% 30.12 in 10.0 mi East 9.2 mph - N/A   Mostly Cloudy
7:53 AM 80.1 °F 83.2 °F 70.0 °F 71% 30.14 in 10.0 mi East 13.8 mph - N/A   Mostly Cloudy
8:53 AM 82.0 °F 85.9 °F 70.0 °F 67% 30.15 in 10.0 mi East 11.5 mph - N/A   Mostly Cloudy
9:53 AM 82.9 °F 87.0 °F 70.0 °F 65% 30.15 in 10.0 mi ENE 10.4 mph - N/A   Mostly Cloudy
10:53 AM 84.9 °F 89.4 °F 70.0 °F 61% 30.14 in 10.0 mi East 13.8 mph - N/A   Mostly Cloudy
11:53 AM 84.9 °F 89.4 °F 70.0 °F 61% 30.15 in 10.0 mi East 10.4 mph 19.6 mph N/A   Mostly Cloudy
12:53 PM 86.0 °F 90.7 °F 70.0 °F 59% 30.15 in 10.0 mi ENE 13.8 mph - N/A   Mostly Cloudy
1:53 PM 86.0 °F 90.1 °F 69.1 °F 57% 30.13 in 10.0 mi East 12.7 mph - N/A   Mostly Cloudy
1:55 PM 86.0 °F 90.1 °F 69.1 °F 57% 30.13 in 10.0 mi East 9.2 mph 17.3 mph N/A   Scattered Clouds
2:53 PM 86.0 °F 90.1 °F 69.1 °F 57% 30.12 in 10.0 mi ESE 10.4 mph - N/A   Scattered Clouds
3:53 PM 86.0 °F 90.7 °F 70.0 °F 59% 30.10 in 10.0 mi East 11.5 mph - N/A   Scattered Clouds
4:53 PM 84.9 °F 88.2 °F 68.0 °F 57% 30.09 in 10.0 mi ENE 11.5 mph 21.9 mph N/A   Scattered Clouds
5:53 PM 84.0 °F 89.6 °F 72.0 °F 67% 30.08 in 10.0 mi NE 13.8 mph - N/A   Mostly Cloudy
6:53 PM 82.9 °F 87.5 °F 71.1 °F 67% 30.07 in 10.0 mi East 10.4 mph - N/A   Scattered Clouds
7:53 PM 82.0 °F 85.9 °F 70.0 °F 67% 30.10 in 10.0 mi East 10.4 mph - N/A   Scattered Clouds
8:53 PM 81.0 °F 84.9 °F 71.1 °F 72% 30.11 in 10.0 mi East 8.1 mph - N/A   Scattered Clouds
9:53 PM 81.0 °F 84.9 °F 71.1 °F 72% 30.11 in 10.0 mi ENE 8.1 mph - N/A   Scattered Clouds
10:53 PM 81.0 °F 84.9 °F 71.1 °F 72% 30.12 in 10.0 mi ENE 10.4 mph - N/A   Scattered Clouds
11:53 PM 80.1 °F 83.6 °F 71.1 °F 74% 30.12 in 10.0 mi East 11.5 mph - N/A   Partly Cloudy